星链-1404 (STARLINK-1404 )

导读

STARLINK-1404是美国太空探索技术公司Starlink星座中的一颗卫星,于2020年6月4日发射升空。Starlink星座旨在为全球提供高速低时延卫星互联网服务,该卫星加入星座后,进一步拓展了星座的全球覆盖范围,助力全球网络基础设施完善,服务偏远地区网络接入需求。

Basic Information
目录编号:
45686
目录名称:
STARLINK-1404
国际标识:
2020-035AF
轨道中心:
EARTH
卫星名称:
星链-1404
卫星全名:
星链-1404 (STARLINK-1404 )
卫星状态:
在轨 (已飞行2290 天)
发射日期:
2020-06-04 UTC
国别 :
美国 (US)
星等 :
--
This satellite is enrolled in the Space Conjunction Data Service (SCDS) and the current flight risk assessment level is: No High Risk
Orbit Information
数据来源 国际轨道数据 AOE轨道数据
星历时间 2026-09-11T07:53:33+0800
14小时前
查看轨道信息
2026-09-10T21:00:00+0800
1天前
查看轨道信息
半长轴 6781.069km 6781.277km
偏心率 0.0004581 0.0003939
轨道倾角 53.151° 53.152°
近地点辐角 63.012° 60.103°
升交点赤经 250.421° 252.609°
平近点角 297.136° 278.414°
近地点 399.825km 400.468km
远地点 406.039km 405.812km
周期 92.620分钟 92.625分钟
每日圈数 15.547321 15.546605
Detailed Information
固有亮度:
5
最大亮度:
2.5
卫星平台:
Starlink V1.0
覆盖范围:
全球
运营商:
太空探索技术公司
运营商所在国:
美国
制造商(研发单位):
太空探索技术公司
制造商所在国:
美国
使用方式:
暂无
Satellite Introduction
星链(Starlink)计划是由太空探索技术公司(SpaceX)提出的一个巨型低轨卫星互联网星座项目,计划在2019年至2024年间在太空搭建由约1.2万颗卫星组成的“星链”网络,其中1584颗将部署在地球上空550千米处的近地轨道,并从2020年开始工作。该卫星仍在工作。
2D Orbit Map
3D Orbit Map
Orbit Altitude Analysis Chart
Orbit Inclination Analysis Chart
Orbit Comprehensive Analysis Chart
View Comprehensive Chart
Miss Distance Evolution Trend with All Objects
Collision Probability Evolution Trend with All Objects